GLO1782 SBEG-SBSN

Flight info

Callsign GLO1782
Flight time 0h 54m
Altitude 35000
Route XOLOK UZ81 TOBUX DCT STM
Aircraft B738/M-SDE2E3FGHIRWXY/LB1

Departure

Time 2026-05-09 02:01
Airport Eduardo Gomes International Airport (SBEG)

Arrival

Time 2026-05-09 02:56
Airport Santarém - Maestro Wilson Fonseca International Airport (SBSN)
Time Latitude Longitude Altitude Speed Heading
2026-05-09 01:21 -3.03270 -60.04500 245 ft 0 kts 349°
2026-05-09 01:47 -3.03272 -60.04500 245 ft 1 kts 349°
2026-05-09 01:47 -3.03286 -60.04497 244 ft 2 kts 349°
2026-05-09 01:47 -3.03301 -60.04494 244 ft 2 kts 349°
2026-05-09 01:48 -3.03311 -60.04493 243 ft 2 kts 348°
2026-05-09 01:48 -3.03324 -60.04486 243 ft 2 kts 317°
2026-05-09 01:48 -3.03334 -60.04474 243 ft 2 kts 295°
2026-05-09 01:48 -3.03338 -60.04460 242 ft 2 kts 271°
2026-05-09 01:49 -3.03337 -60.04451 242 ft 1 kts 257°
2026-05-09 01:49 -3.03338 -60.04457 242 ft 0 kts 261°
2026-05-09 01:49 -3.03339 -60.04461 242 ft 0 kts 259°
2026-05-09 01:54 -3.03343 -60.04485 242 ft 12 kts 259°
2026-05-09 01:54 -3.03355 -60.04655 239 ft 37 kts 270°
2026-05-09 01:54 -3.03503 -60.04906 234 ft 45 kts 219°
2026-05-09 01:55 -3.03628 -60.05183 229 ft 44 kts 255°
2026-05-09 01:55 -3.03689 -60.05485 226 ft 43 kts 266°
2026-05-09 01:55 -3.03691 -60.05793 219 ft 44 kts 270°
2026-05-09 01:55 -3.03690 -60.06059 222 ft 23 kts 270°
2026-05-09 01:56 -3.03695 -60.06109 222 ft 0 kts 254°
2026-05-09 01:56 -3.03706 -60.06135 224 ft 15 kts 240°
2026-05-09 01:57 -3.03791 -60.06174 229 ft 3 kts 177°
2026-05-09 01:57 -3.03796 -60.06173 229 ft 2 kts 173°
2026-05-09 01:58 -3.03821 -60.06170 230 ft 3 kts 172°
2026-05-09 01:58 -3.03836 -60.06166 230 ft 1 kts 160°
2026-05-09 01:58 -3.03850 -60.06160 230 ft 8 kts 142°
2026-05-09 01:58 -3.03855 -60.06072 228 ft 13 kts 89°
2026-05-09 01:59 -3.03855 -60.06030 226 ft 3 kts 90°
2026-05-09 01:59 -3.03855 -60.06021 226 ft 0 kts 90°
2026-05-09 02:00 -3.03855 -60.06020 226 ft 1 kts 90°
2026-05-09 02:00 -3.03855 -60.05873 226 ft 56 kts 90°
2026-05-09 02:00 -3.03856 -60.05243 243 ft 123 kts 91°
2026-05-09 02:01 -3.03854 -60.04201 283 ft 173 kts 89°
2026-05-09 02:01 -3.03879 -60.02953 954 ft 179 kts 91°
2026-05-09 02:01 -3.03931 -60.01785 2012 ft 172 kts 90°
2026-05-09 02:01 -3.03950 -60.00615 2917 ft 173 kts 89°
2026-05-09 02:02 -3.03950 -59.99418 3849 ft 172 kts 88°
2026-05-09 02:02 -3.03958 -59.98233 4663 ft 176 kts 89°
2026-05-09 02:02 -3.03854 -59.96994 5248 ft 191 kts 69°
2026-05-09 02:02 -3.03216 -59.95776 5878 ft 207 kts 63°
2026-05-09 02:03 -3.02707 -59.94379 6516 ft 225 kts 77°
2026-05-09 02:03 -3.02472 -59.92772 7184 ft 243 kts 83°
2026-05-09 02:03 -3.02309 -59.91045 7832 ft 260 kts 83°
2026-05-09 02:03 -3.02126 -59.89207 8557 ft 272 kts 83°
2026-05-09 02:04 -3.01918 -59.87290 9378 ft 280 kts 82°
2026-05-09 02:04 -3.01695 -59.85343 9777 ft 286 kts 82°
2026-05-09 02:04 -3.01466 -59.83355 9913 ft 287 kts 82°
2026-05-09 02:04 -3.01238 -59.81379 9957 ft 281 kts 82°
2026-05-09 02:05 -3.01017 -59.79459 10396 ft 284 kts 82°
2026-05-09 02:05 -3.00788 -59.77480 10830 ft 291 kts 82°
2026-05-09 02:05 -3.00547 -59.75397 11303 ft 309 kts 82°
2026-05-09 02:05 -3.00297 -59.73235 11805 ft 325 kts 82°
2026-05-09 02:06 -3.00028 -59.70906 12391 ft 339 kts 83°
2026-05-09 02:06 -2.99756 -59.68543 13102 ft 346 kts 83°
2026-05-09 02:06 -2.99480 -59.66150 13846 ft 351 kts 82°
2026-05-09 02:07 -2.98918 -59.61269 15403 ft 355 kts 83°
2026-05-09 02:07 -2.98635 -59.58811 16101 ft 359 kts 83°
2026-05-09 02:07 -2.98349 -59.56328 16769 ft 362 kts 83°
2026-05-09 02:07 -2.98061 -59.53827 17450 ft 365 kts 83°
2026-05-09 02:08 -2.97771 -59.51314 18099 ft 367 kts 83°
2026-05-09 02:08 -2.97474 -59.48746 18636 ft 373 kts 83°
2026-05-09 02:08 -2.97173 -59.46143 19161 ft 378 kts 83°
2026-05-09 02:08 -2.96870 -59.43530 19745 ft 381 kts 83°
2026-05-09 02:09 -2.96566 -59.40900 20316 ft 383 kts 83°
2026-05-09 02:09 -2.96258 -59.38235 20815 ft 387 kts 83°
2026-05-09 02:09 -2.95947 -59.35538 21295 ft 392 kts 83°
2026-05-09 02:09 -2.95638 -59.32853 21800 ft 395 kts 83°
2026-05-09 02:10 -2.95319 -59.30091 22275 ft 398 kts 83°
2026-05-09 02:10 -2.95000 -59.27326 22747 ft 402 kts 83°
2026-05-09 02:10 -2.94677 -59.24529 23208 ft 406 kts 83°
2026-05-09 02:10 -2.94354 -59.21736 23617 ft 411 kts 83°
2026-05-09 02:11 -2.94023 -59.18869 24074 ft 415 kts 83°
2026-05-09 02:11 -2.93695 -59.16032 24599 ft 416 kts 83°
2026-05-09 02:11 -2.93358 -59.13121 24941 ft 422 kts 83°
2026-05-09 02:11 -2.93024 -59.10233 25413 ft 424 kts 83°
2026-05-09 02:12 -2.92679 -59.07250 25840 ft 427 kts 84°
2026-05-09 02:12 -2.92337 -59.04296 26223 ft 431 kts 83°
2026-05-09 02:12 -2.91989 -59.01289 26591 ft 435 kts 84°
2026-05-09 02:12 -2.91642 -58.98289 26970 ft 438 kts 83°
2026-05-09 02:13 -2.91289 -58.95237 27294 ft 443 kts 83°
2026-05-09 02:13 -2.90938 -58.92204 27700 ft 445 kts 83°
2026-05-09 02:13 -2.90578 -58.89103 28048 ft 449 kts 83°
2026-05-09 02:13 -2.90219 -58.86010 28370 ft 453 kts 83°
2026-05-09 02:14 -2.89851 -58.82830 28714 ft 456 kts 84°
2026-05-09 02:14 -2.89486 -58.79688 29024 ft 460 kts 84°
2026-05-09 02:14 -2.89119 -58.76524 29494 ft 459 kts 84°
2026-05-09 02:14 -2.88751 -58.73352 30056 ft 456 kts 84°
2026-05-09 02:15 -2.88385 -58.70198 30550 ft 455 kts 84°
2026-05-09 02:15 -2.88021 -58.67062 30943 ft 456 kts 84°
2026-05-09 02:15 -2.87658 -58.63940 31350 ft 456 kts 84°
2026-05-09 02:15 -2.87292 -58.60789 31718 ft 457 kts 84°
2026-05-09 02:16 -2.86927 -58.57639 32132 ft 456 kts 84°
2026-05-09 02:16 -2.86560 -58.54483 32524 ft 456 kts 84°
2026-05-09 02:16 -2.86194 -58.51323 32962 ft 455 kts 84°
2026-05-09 02:16 -2.85834 -58.48216 33396 ft 454 kts 84°
2026-05-09 02:17 -2.85707 -58.47125 33533 ft 454 kts 84°
2026-05-09 02:17 -2.85421 -58.44671 33864 ft 454 kts 83°
2026-05-09 02:17 -2.85061 -58.41576 34277 ft 453 kts 83°
2026-05-09 02:17 -2.84695 -58.38432 34668 ft 452 kts 83°
2026-05-09 02:18 -2.84334 -58.35335 34923 ft 455 kts 83°
2026-05-09 02:18 -2.83595 -58.28979 34915 ft 453 kts 83°
2026-05-09 02:19 -2.82861 -58.22681 34914 ft 451 kts 83°
2026-05-09 02:19 -2.82130 -58.16405 34913 ft 452 kts 83°
2026-05-09 02:20 -2.81406 -58.10195 34908 ft 452 kts 84°
2026-05-09 02:20 -2.80674 -58.03927 34904 ft 451 kts 84°
2026-05-09 02:21 -2.79946 -57.97678 34908 ft 452 kts 84°
2026-05-09 02:21 -2.79216 -57.91429 34905 ft 451 kts 84°
2026-05-09 02:22 -2.78487 -57.85189 34908 ft 452 kts 83°
2026-05-09 02:22 -2.77757 -57.78939 34909 ft 452 kts 83°
2026-05-09 02:23 -2.77030 -57.72720 34910 ft 451 kts 84°
2026-05-09 02:23 -2.76298 -57.66466 34913 ft 451 kts 84°
2026-05-09 02:24 -2.75569 -57.60238 34908 ft 452 kts 83°
2026-05-09 02:24 -2.74836 -57.53967 34908 ft 451 kts 83°
2026-05-09 02:25 -2.74105 -57.47727 34906 ft 451 kts 83°
2026-05-09 02:25 -2.73378 -57.41523 34906 ft 450 kts 83°
2026-05-09 02:26 -2.72647 -57.35294 34906 ft 450 kts 84°
2026-05-09 02:26 -2.71919 -57.29086 34906 ft 450 kts 83°
2026-05-09 02:27 -2.71189 -57.22863 34906 ft 449 kts 83°
2026-05-09 02:27 -2.70460 -57.16654 34907 ft 450 kts 83°
2026-05-09 02:28 -2.69724 -57.10391 34905 ft 451 kts 83°
2026-05-09 02:28 -2.68994 -57.04177 34906 ft 450 kts 83°
2026-05-09 02:29 -2.68262 -56.97955 34906 ft 450 kts 83°
2026-05-09 02:29 -2.67532 -56.91740 34906 ft 450 kts 83°
2026-05-09 02:30 -2.66805 -56.85551 34907 ft 449 kts 83°
2026-05-09 02:30 -2.66072 -56.79324 34912 ft 449 kts 83°
2026-05-09 02:31 -2.65341 -56.73116 34921 ft 450 kts 83°
2026-05-09 02:31 -2.64607 -56.66877 34928 ft 449 kts 83°
2026-05-09 02:32 -2.63876 -56.60686 34929 ft 450 kts 83°
2026-05-09 02:32 -2.63144 -56.54478 34930 ft 450 kts 83°
2026-05-09 02:33 -2.62408 -56.48234 34930 ft 449 kts 83°
2026-05-09 02:33 -2.61676 -56.42033 34931 ft 449 kts 83°
2026-05-09 02:34 -2.60945 -56.35822 34932 ft 449 kts 83°
2026-05-09 02:34 -2.60219 -56.29601 34932 ft 448 kts 83°
2026-05-09 02:35 -2.59505 -56.23439 34933 ft 449 kts 83°
2026-05-09 02:35 -2.58791 -56.17237 34934 ft 449 kts 83°
2026-05-09 02:36 -2.58080 -56.11045 34711 ft 446 kts 83°
2026-05-09 02:36 -2.57727 -56.07976 34284 ft 440 kts 83°
2026-05-09 02:36 -2.57382 -56.04974 33976 ft 431 kts 83°
2026-05-09 02:36 -2.57044 -56.02030 33587 ft 425 kts 83°
2026-05-09 02:37 -2.56707 -55.99102 33133 ft 420 kts 83°
2026-05-09 02:37 -2.56375 -55.96212 32677 ft 415 kts 83°
2026-05-09 02:37 -2.56050 -55.93388 32258 ft 411 kts 83°
2026-05-09 02:37 -2.55725 -55.90560 31809 ft 408 kts 83°
2026-05-09 02:38 -2.55401 -55.87741 31346 ft 405 kts 83°
2026-05-09 02:38 -2.55079 -55.84948 30890 ft 401 kts 83°
2026-05-09 02:38 -2.54763 -55.82200 30436 ft 398 kts 84°
2026-05-09 02:38 -2.54447 -55.79452 29980 ft 395 kts 84°
2026-05-09 02:39 -2.54133 -55.76718 29525 ft 392 kts 84°
2026-05-09 02:39 -2.53826 -55.74051 29059 ft 390 kts 84°
2026-05-09 02:39 -2.53515 -55.71349 28590 ft 387 kts 84°
2026-05-09 02:39 -2.53208 -55.68682 28141 ft 384 kts 84°
2026-05-09 02:40 -2.52906 -55.66057 27700 ft 381 kts 84°
2026-05-09 02:40 -2.52602 -55.63412 27244 ft 378 kts 84°
2026-05-09 02:40 -2.52303 -55.60820 26806 ft 375 kts 84°
2026-05-09 02:40 -2.52004 -55.58225 26355 ft 372 kts 84°
2026-05-09 02:41 -2.51710 -55.55669 25912 ft 369 kts 84°
2026-05-09 02:41 -2.51417 -55.53126 25468 ft 366 kts 84°
2026-05-09 02:41 -2.51129 -55.50631 25030 ft 363 kts 84°
2026-05-09 02:41 -2.50839 -55.48115 24592 ft 359 kts 84°
2026-05-09 02:42 -2.50550 -55.45672 24159 ft 356 kts 83°
2026-05-09 02:42 -2.50244 -55.43161 23540 ft 358 kts 83°
2026-05-09 02:42 -2.49943 -55.40705 22832 ft 360 kts 83°
2026-05-09 02:42 -2.49636 -55.38237 22048 ft 358 kts 83°
2026-05-09 02:43 -2.49328 -55.35774 21286 ft 355 kts 83°
2026-05-09 02:43 -2.49024 -55.33346 20522 ft 353 kts 83°
2026-05-09 02:43 -2.48725 -55.30946 19758 ft 351 kts 83°
2026-05-09 02:43 -2.48425 -55.28531 18980 ft 348 kts 82°
2026-05-09 02:44 -2.48130 -55.26149 18202 ft 346 kts 82°
2026-05-09 02:44 -2.47836 -55.23773 17413 ft 343 kts 82°
2026-05-09 02:44 -2.47542 -55.21398 16609 ft 341 kts 82°
2026-05-09 02:44 -2.47253 -55.19066 15811 ft 339 kts 82°
2026-05-09 02:45 -2.46966 -55.16746 15023 ft 335 kts 82°
2026-05-09 02:45 -2.46686 -55.14478 14560 ft 322 kts 83°
2026-05-09 02:45 -2.46429 -55.12328 14138 ft 309 kts 84°
2026-05-09 02:45 -2.46364 -55.10202 13690 ft 301 kts 91°
2026-05-09 02:46 -2.46487 -55.08128 13262 ft 296 kts 94°
2026-05-09 02:46 -2.46642 -55.06159 12881 ft 287 kts 95°
2026-05-09 02:46 -2.47188 -55.04207 12372 ft 287 kts 120°
2026-05-09 02:46 -2.48604 -55.02819 11954 ft 288 kts 148°
2026-05-09 02:47 -2.50448 -55.02007 11555 ft 290 kts 158°
2026-05-09 02:47 -2.52394 -55.01453 11154 ft 292 kts 171°
2026-05-09 02:47 -2.54417 -55.01706 10678 ft 296 kts 202°
2026-05-09 02:47 -2.56051 -55.02984 10259 ft 302 kts 234°
2026-05-09 02:48 -2.56877 -55.04884 9846 ft 303 kts 257°
2026-05-09 02:48 -2.57221 -55.06916 9423 ft 303 kts 263°
2026-05-09 02:48 -2.57346 -55.09074 8974 ft 302 kts 279°
2026-05-09 02:48 -2.56612 -55.10977 8511 ft 291 kts 311°
2026-05-09 02:49 -2.55061 -55.12175 8088 ft 282 kts 344°
2026-05-09 02:49 -2.53149 -55.12374 7569 ft 273 kts 17°
2026-05-09 02:49 -2.51462 -55.11636 7194 ft 262 kts 36°
2026-05-09 02:49 -2.49955 -55.10574 6726 ft 264 kts 41°
2026-05-09 02:50 -2.48583 -55.09372 6285 ft 264 kts 47°
2026-05-09 02:50 -2.47295 -55.08050 5844 ft 264 kts 51°
2026-05-09 02:50 -2.46217 -55.06591 5461 ft 259 kts 67°
2026-05-09 02:50 -2.45846 -55.04842 5033 ft 257 kts 90°
2026-05-09 02:51 -2.45904 -55.03097 4860 ft 248 kts 92°
2026-05-09 02:51 -2.45890 -55.01364 4456 ft 249 kts 85°
2026-05-09 02:51 -2.45649 -54.99652 4095 ft 248 kts 79°
2026-05-09 02:51 -2.45320 -54.97996 3721 ft 242 kts 79°
2026-05-09 02:52 -2.45152 -54.97075 3553 ft 236 kts 80°
2026-05-09 02:52 -2.44900 -54.95499 3237 ft 227 kts 81°
2026-05-09 02:52 -2.44656 -54.93943 2920 ft 220 kts 80°
2026-05-09 02:52 -2.44412 -54.92466 2618 ft 213 kts 80°
2026-05-09 02:53 -2.44174 -54.91043 2342 ft 204 kts 80°
2026-05-09 02:53 -2.43953 -54.89685 2068 ft 191 kts 80°
2026-05-09 02:53 -2.43749 -54.88441 1800 ft 171 kts 80°
2026-05-09 02:53 -2.43563 -54.87320 1573 ft 158 kts 79°
2026-05-09 02:54 -2.43386 -54.86247 1381 ft 157 kts 80°
2026-05-09 02:54 -2.43217 -54.85210 1181 ft 142 kts 79°
2026-05-09 02:54 -2.43059 -54.84257 977 ft 137 kts 80°
2026-05-09 02:54 -2.42908 -54.83329 827 ft 135 kts 81°
2026-05-09 02:55 -2.42752 -54.82390 619 ft 136 kts 81°
2026-05-09 02:55 -2.42589 -54.81454 424 ft 135 kts 81°
2026-05-09 02:55 -2.42450 -54.80547 222 ft 129 kts 82°
2026-05-09 02:55 -2.42331 -54.79793 196 ft 78 kts 79°
2026-05-09 02:56 -2.42269 -54.79422 203 ft 47 kts 80°
2026-05-09 02:56 -2.42218 -54.79102 204 ft 44 kts 80°
2026-05-09 02:56 -2.42172 -54.78837 199 ft 22 kts 80°
2026-05-09 02:56 -2.42221 -54.78715 198 ft 13 kts 139°
2026-05-09 02:57 -2.42279 -54.78664 198 ft 10 kts 139°
2026-05-09 02:57 -2.42323 -54.78624 198 ft 7 kts 137°
2026-05-09 02:57 -2.42357 -54.78590 197 ft 4 kts 130°
2026-05-09 02:57 -2.42367 -54.78563 197 ft 4 kts 81°
2026-05-09 02:58 -2.42347 -54.78533 196 ft 7 kts 51°
2026-05-09 02:58 -2.42292 -54.78437 193 ft 21 kts 86°
2026-05-09 02:58 -2.42308 -54.78380 191 ft 2 kts 187°
2026-05-09 02:58 -2.42339 -54.78387 191 ft 2 kts 187°
2026-05-09 02:59 -2.42346 -54.78388 192 ft 0 kts 187°